Reflectivity
-20 -20 -20 -20 -20 -20 -17 -20 -20 -20 -20 -20 -20 -20 -20 -20 -20 -20 -20 -20 -20 -20 -20 -20 -20 -20 -20 -20 -20 -20 -20 -20 -20 -20 -20 -20 -20 -20 -20 -20 -20 -20 -20 -20 -20 -20 -20 -20 -20
-20 -20 -20 -20 -20 -18 25 -16 -20 -20 -20 -20 -20 -20 -20 -20 -20 -20 -20 -20 -20 -20 -20 -20 -20 -20 -20 -20 -20 -20 -20 -20 -20 -20 -20 -20 -20 -20 -20 -20 -20 -20 -20 -20 -20 -20 -20 -20 -20
-20 -20 -20 -20 -20 -17 -15 -20 -20 -20 -20 -20 -20 -20 -20 -20 -20 -20 -20 -20 -20 -20 -20 -20 -20 -20 -20 -20 -20 -20 -20 -20 -20 -20 -20 -20 -20 -20 -20 -20 -20 -20 -20 -20 -20 -20 -20 -20 -20
-20 -20 -20 -20 -20 -20 -20 -20 -20 -20 -20 -20 -20 -20 -20 -20 -20 -20 -20 -20 -20 -20 -20 -20 -20 -20 -20 -20 -20 -20 -20 -20 -20 -20 -20 -20 -20 -20 -20 -20 -20 -20 -20 -20 -20 -20 -20 -20 -20
-20 -20 -20 -20 -20 -20 -20 -20 -20 -20 -20 -20 -20 -20 -20 -20 -20 -20 -20 -20 -20 -20 -20 -20 -20 -20 -20 -20 -20 -20 -20 -20 -20 -20 -20 -20 -20 -20 -20 -20 -20 -20 -20 -20 -20 -20 -20 -20 -20
-20 -20 -20 -20 -20 -20 -20 -20 -20 -20 -20 -20 -20 -20 -20 -20 -20 -20 -20 -20 -20 -20 -20 -20 -20 -20 -20 -20 -20 -20 -20 -20 -20 -20 -20 -20 -20 -20 -20 -20 -20 -20 -20 -20 -20 -20 -20 -20 -20
-20 -20 -20 -20 -20 -20 -20 -20 -20 -20 -20 -20 -20 -20 -20 -20 -20 -20 -20 -20 -20 -20 -20 -20 -20 -20 -20 -20 -20 -20 -20 -20 -20 -20 -20 -20 -20 -20 -20 -20 -20 -20 -20 -20 -20 -20 -20 -20 -20
-20 -20 -20 -20 -20 -20 -20 -20 -20 -20 -20 -20 -20 -20 -20 -20 -20 -20 -20 -20 -20 -20 -20 -20 -20 -20 -20 -20 -20 -20 -20 -20 -20 -20 -20 -20 -20 -20 -20 -20 -20 -20 5 -20 -20 -20 -20 -14 -20
-20 -20 -20 -20 -20 -20 -20 -20 -20 -20 -20 -20 -20 -20 -20 -20 -20 -20 -20 -20 -20 -20 -20 -20 -20 -20 -20 -20 -20 -20 -20 -20 -20 -20 -20 -7 -20 -20 -20 -20 -20 -20 4 -20 -2 -6 -20 -20 -20
-20 -20 -20 -20 -20 -20 -20 -20 -20 -20 -20 -20 -20 -20 -20 -20 -20 -20 -20 -20 -20 -20 -20 -20 -20 -20 -20 -20 -20 -20 -20 -20 -20 -20 -20 -20 -20 -11 -20 -20 -20 -2 -12 -20 -3 -0 -12 -20 -20
-20 -20 -20 -20 -20 -20 -20 -20 -20 -20 -20 -20 -20 -20 -20 -20 -20 -20 -20 -20 -20 -20 -20 -20 -12 -1 -20 -19 -20 -20 -20 -20 -20 -20 -20 -20 -20 -11 8 2 19 37 33 -10 9 8 -11 -20 0
-20 -20 -20 -20 -20 -20 -20 -20 -20 -20 -20 -20 -20 -20 -20 -20 -20 -20 -20 -20 -20 -20 -20 -20 -20 -20 -20 -20 -20 -20 -20 -20 -20 -17 11 -7 -20 -20 -14 -18 36 36 39 39 36 13 31 -11 11
-20 -20 -20 -20 -20 -20 -20 -20 -20 -20 -20 -20 -20 -20 -20 -20 -20 -20 -20 -20 -20 -20 -20 -20 -20 -20 -20 -20 -20 -20 -20 -20 -20 16 -20 -17 -1 -1 -1 23 25 32 40 46 45 36 16 -20 -20
-20 -20 -20 -20 -20 -20 -20 -20 -20 -20 -20 -20 -20 -20 -20 -20 -20 -20 -20 -20 -20 -20 -20 -20 -20 -20 -20 -20 -20 -20 -20 -18 -20 -20 -20 -20 -20 -20 -19 23 28 7 21 39 40 27 17 1 -15
-20 -20 -20 -20 -20 -20 -20 -20 -20 -20 -20 -20 -20 -20 -20 -20 -20 -20 -20 -20 -20 -20 -20 -20 -20 -20 -20 -20 -20 -20 -20 -20 -20 -20 -20 -20 7 -20 -20 5 25 5 -10 18 29 31 -1 29 14
-20 -20 -20 -20 -20 -20 -20 -20 -20 -20 -20 -20 -20 -20 -20 -20 -20 -20 -20 -20 -20 -20 -20 -20 -20 -20 -20 -20 -20 -20 -17 -20 -20 -20 -20 -20 -20 -20 -20 -20 6 -18 -20 -20 6 23 27 20 -1
-20 -20 -20 -20 -20 -20 -20 -20 -20 -20 -20 -20 -20 -20 -20 -20 -20 -20 -20 -20 -20 -20 -20 -20 -20 -20 -20 -19 -8 -9 -2 -15 -20 -20 -20 -20 -20 -20 -20 -20 -20 -20 -20 -20 -20 -9 -3 -13 -14
-20 -20 -20 -20 -20 -20 -20 -20 -20 -20 -20 -20 -20 -20 -20 -20 -20 -20 -20 -20 -20 -20 -20 -20 -20 -20 -20 -20 14 -15 -20 -18 -10 -20 -20 -20 -20 -20 -20 -20 -20 -20 -19 -20 -20 -20 -20 -15 -14
-20 -20 -20 -20 -20 -20 -20 -20 -20 -20 -20 -20 -20 -20 -20 -20 -20 -20 -20 -20 -20 -20 -20 -20 -20 -20 -20 -14 16 -9 12 8 -20 -20 -20 -20 -20 -20 -20 -20 -20 -20 -20 -7 -11 -20 -20 -20 -7
-20 -20 -20 -20 -20 -19 -20 -20 -20 -20 -20 -20 -20 -20 -20 -20 -20 -20 -20 -20 -20 -20 -20 -14 -9 -20 -20 4 9 16 9 -1 -20 -20 -20 -20 -20 -20 -20 -20 -20 -20 -20 -20 -20 -18 -19 -18 -20
-20 -20 -20 -20 -19 -10 -20 -20 -20 -20 -20 -20 -20 -20 -20 -20 -20 -20 -20 -20 -20 -6 -10 10 -20 -20 -4 0 16 -1 -4 -20 -20 -20 -20 -20 -20 -20 -20 -20 -20 -20 -20 -20 -20 -14 -20 -2 -2
-20 -18 -20 -20 -20 -20 -20 -20 -20 -20 -20 -20 -20 -20 -20 -20 -20 -20 -20 -20 -13 -13 -20 -20 -19 5 5 -5 -3 -9 -20 -20 -20 -20 -20 -20 -20 -20 -20 -20 -20 -20 -20 -20 -20 -20 -20 -20 -20
-20 -20 -20 -20 -20 -20 -20 -20 -20 -20 -20 -20 -20 -19 -20 -20 -20 -20 -20 -20 -20 -20 -20 7 -8 -20 -20 -15 -20 -20 -20 -20 -20 -20 -20 -20 -20 -20 -20 -20 -20 -20 -20 -20 -20 -20 -20 -20 -20
-20 -20 -7 2 -2 -20 -20 -20 -20 -20 -20 -20 -20 -20 -20 -20 -20 -20 -20 -20 -20 -20 -20 9 -20 -20 -18 -20 -1 -4 -6 -20 -20 -20 -20 -20 -20 -20 -20 -20 -20 -20 -20 -20 -20 -20 -20 -20 -20
-20 -20 -17 10 -2 -20 -20 -20 -20 -20 -20 -20 -20 -20 -20 -20 -20 -20 -20 -20 -20 -20 -20 -20 -20 -20 -20 -19 -20 4 -20 -20 -20 -20 -20 -20 -20 -20 -20 -20 -20 -20 -20 -20 -20 -20 -20 -20 -20
-11 3 21 5 -20 -20 -20 -20 -20 -20 -20 -20 -20 -20 -20 -20 -20 -20 -20 -20 -20 -20 -20 -20 -20 -20 -20 -17 -20 -20 -20 -20 -20 -20 -20 -20 -20 -20 -20 -20 -20 -20 -20 -20 -20 -20 -20 -20 -20
-20 -20 -13 9 6 -20 -20 -20 -20 -20 -20 -20 -20 -20 -20 -20 -20 -20 -20 -20 -20 -20 -20 -20 -20 -20 -20 -20 -20 -20 -20 -20 -20 -20 -20 -20 -20 -20 -20 -20 -20 -20 -20 -20 -20 -20 -20 -20 -20
-20 -14 -19 -16 -20 -20 -20 -20 -20 -20 -20 -20 -20 -20 -20 -20 -20 -20 -20 -20 -20 -20 -20 -20 -20 -20 -20 -20 -20 -20 -20 -20 -20 -20 -20 -20 -20 -20 -20 -20 -20 -20 -20 -20 -20 -20 -20 -20 -20
-20 8 7 -20 -20 -20 -20 -20 -20 -20 -20 -20 -20 -20 -20 -20 -20 -20 -20 -20 -20 -20 -20 -20 -20 -20 -20 -20 -20 -20 -20 -20 -20 -20 -20 -20 -20 -20 -20 -20 -20 -20 -20 -20 -20 -20 -20 -20 -20
-20 -19 -18 -20 -20 -20 -20 -20 -20 -20 -20 -20 -20 -20 -20 -20 -20 -20 -20 -20 -20 -20 -20 -20 -20 -20 -20 -20 -20 -20 -20 -20 -20 -20 -20 -20 -20 -20 -20 -20 -20 -20 -20 -20 -20 -20 -20 -20 -20
Wind_Speed
9 11 8 7 5 8 15 8 5 11 10 10 12 9 17 19 13 6 10 5 23 17 15 15 13 13 13 12 13 14 14 14 13 12 11 10 9 8 8 8 7 7 8 10 10 10 10 10 9
10 15 7 6 7 11 6 6 13 13 12 10 5 4 16 16 15 12 9 4 20 19 14 14 13 13 13 12 12 13 14 14 14 13 12 10 9 8 8 7 7 6 7 8 10 10 10 9 7
10 13 7 6 10 8 6 11 10 10 7 6 3 8 7 8 12 8 11 8 17 17 14 15 14 13 13 13 12 13 14 13 13 13 12 11 10 9 8 7 6 5 7 8 8 9 9 7 6
7 6 6 7 16 11 13 5 5 8 5 6 7 16 10 9 7 7 10 11 14 16 15 17 13 13 13 13 12 13 13 13 13 12 12 11 10 9 7 6 5 5 6 7 7 7 6 5 4
6 6 10 14 18 12 11 5 7 4 6 7 6 19 13 12 11 11 9 11 12 12 15 16 15 13 13 13 13 12 12 13 12 11 11 10 9 8 7 6 4 4 5 6 6 5 4 3 2
7 8 11 14 18 14 12 8 8 7 3 12 3 12 10 11 12 9 8 8 9 15 13 12 14 12 11 11 11 11 12 12 11 10 10 9 8 8 7 5 4 4 5 4 4 4 3 2 2
11 10 16 20 7 12 13 3 8 7 2 11 11 2 11 12 9 9 7 7 7 12 12 10 10 10 9 9 9 9 10 10 9 9 9 8 7 7 6 5 5 7 6 5 4 3 3 3 3
7 9 18 17 12 15 6 6 4 5 8 1 4 6 10 8 8 9 9 10 8 6 12 10 9 9 8 7 9 9 9 8 8 8 7 7 7 6 5 5 5 5 8 8 6 5 5 5 6
10 6 11 12 13 11 6 3 8 1 3 2 2 6 9 7 7 9 9 10 10 7 10 10 10 9 9 9 8 9 10 9 8 7 7 6 4 6 8 9 9 9 7 8 8 8 7 6 9
9 10 7 11 12 12 8 2 6 3 6 3 3 10 9 5 4 6 10 11 14 12 10 10 10 10 9 9 11 8 8 7 6 7 8 5 6 5 6 7 9 9 10 9 9 8 8 6 5
10 14 7 8 7 8 6 2 5 4 7 5 5 6 3 3 4 6 8 9 18 18 12 12 9 10 10 6 8 6 6 6 6 8 8 7 4 2 1 3 3 4 8 5 7 6 5 6 5
5 14 3 5 3 4 3 5 8 7 8 6 3 2 4 7 4 6 8 8 5 18 17 14 12 7 6 5 8 8 7 8 7 8 7 4 2 3 2 1 4 9 10 9 5 4 5 5 6
12 12 4 5 4 6 8 10 10 10 9 4 4 2 7 4 6 7 6 7 5 15 16 15 13 9 6 4 4 5 4 4 6 5 5 4 4 5 11 9 7 5 10 17 13 4 4 3 7
6 8 8 9 9 10 11 10 10 9 9 4 8 6 4 4 5 7 7 2 1 7 17 15 14 10 6 4 3 3 7 7 8 7 7 10 8 7 7 7 2 5 7 2 15 8 3 6 10
7 10 12 15 14 12 2 12 20 13 9 9 11 10 6 6 4 6 11 11 4 5 16 15 13 9 7 3 5 4 9 8 6 6 6 8 8 7 6 6 5 4 3 4 5 6 4 4 9
6 11 9 14 20 9 6 12 17 14 10 8 10 5 4 6 1 11 7 7 8 4 15 16 12 9 9 8 9 7 7 6 5 5 4 6 4 3 3 3 3 3 4 4 1 2 1 8 9
11 9 15 17 15 12 12 7 8 13 11 10 8 9 3 2 2 9 5 4 4 5 15 17 14 12 11 12 8 7 6 5 4 5 4 3 2 1 2 3 4 4 3 3 3 2 3 7 8
11 18 17 14 13 8 11 13 11 13 13 12 4 7 2 5 3 8 7 6 7 3 15 14 11 14 12 9 7 5 5 5 3 4 3 4 3 2 2 3 4 2 1 1 1 4 4 7 6
18 15 14 14 11 11 11 10 14 17 18 7 7 8 8 5 10 10 5 7 11 11 13 12 13 11 10 7 5 4 4 4 4 4 4 3 3 2 2 2 3 2 2 2 1 1 3 6 4
18 16 15 16 15 15 14 14 15 17 20 10 9 7 8 9 12 8 5 5 10 9 10 10 9 9 8 7 5 4 5 3 4 4 5 4 1 2 2 5 4 5 4 4 3 4 2 3 6
13 14 14 17 15 9 7 17 19 22 20 9 6 8 8 7 12 8 6 6 7 7 7 7 9 10 8 9 7 7 4 5 3 3 3 3 4 5 4 6 4 4 3 2 1 2 3 1 3
16 16 18 17 11 13 11 16 17 13 16 11 11 9 8 7 10 9 9 8 7 7 7 7 7 9 9 10 9 11 6 6 4 4 4 5 6 5 5 4 3 1 1 2 2 3 3 2 3
14 6 10 9 11 14 15 13 11 12 14 15 14 12 10 12 10 10 10 10 9 6 7 7 7 8 8 10 10 8 6 6 6 7 7 6 5 6 6 5 4 4 4 4 3 2 2 3 3
9 8 7 10 10 13 15 15 11 15 15 18 16 13 11 10 11 11 11 11 10 8 9 8 9 9 10 9 9 8 7 8 8 6 6 5 5 4 5 5 5 5 3 4 4 2 2 3 4
12 8 4 4 8 10 11 15 15 12 8 22 20 16 13 11 11 12 13 12 11 10 11 10 12 12 11 9 7 8 6 6 7 8 6 7 5 5 6 6 5 3 3 3 3 3 3 3 2
17 15 7 9 10 14 15 12 13 4 7 18 17 16 13 12 11 13 14 13 13 13 13 13 14 14 13 9 8 6 8 4 4 7 6 6 6 8 10 7 7 5 6 5 3 2 3 4 2
18 23 17 14 14 7 7 12 5 6 10 16 16 16 14 14 13 13 14 14 13 14 14 12 12 11 9 7 5 6 5 5 5 7 4 2 3 7 7 7 6 5 5 6 5 3 4 4 3
24 13 14 9 9 13 11 15 10 13 14 16 17 17 16 14 13 12 12 13 13 13 11 8 8 11 10 8 6 6 6 5 2 5 5 5 6 4 7 7 6 7 6 5 5 3 3 2 2
16 19 14 12 13 8 6 7 10 13 21 19 18 17 16 15 15 13 12 12 12 11 11 7 5 6 8 8 6 5 5 6 5 4 4 5 4 5 5 7 6 5 5 6 5 5 4 6 5
22 24 23 10 15 17 9 2 10 6 14 12 15 16 16 16 15 14 13 13 11 11 11 9 6 4 4 5 6 4 4 3 4 4 5 4 3 3 4 4 4 5 6 6 6 7 5 6 5
Wind_Direction
281 237 231 254 255 229 267 98 85 112 103 70 57 41 70 46 35 62 89 54 110 117 120 123 114 121 126 130 138 139 142 141 138 133 129 128 124 118 108 99 96 103 107 108 108 106 104 100 94
301 288 237 273 256 268 352 74 67 52 67 82 87 27 68 69 74 107 94 145 117 123 135 132 128 130 130 132 139 141 145 145 142 139 138 135 131 127 117 111 107 112 115 116 117 115 114 108 94
260 259 269 227 234 272 156 39 85 88 136 153 108 89 34 29 51 77 99 127 117 125 146 135 138 134 134 136 141 146 146 146 143 142 143 141 139 136 126 120 115 117 121 121 118 115 116 109 112
249 217 244 258 263 78 71 43 107 132 121 339 5 96 86 38 67 76 121 140 121 133 141 140 137 140 143 142 143 145 145 144 145 145 148 148 143 139 130 126 125 128 120 117 116 117 118 115 118
227 269 255 258 255 106 91 43 353 123 83 52 1 85 91 94 90 109 141 134 126 128 127 147 143 145 145 145 146 143 146 146 147 147 146 142 136 134 134 136 131 124 119 117 122 122 122 131 143
252 236 265 260 244 114 88 29 19 45 70 42 349 86 85 65 86 110 134 119 119 118 132 142 140 142 144 146 140 143 146 146 148 146 143 136 134 135 136 142 148 139 123 117 124 133 146 172 224
258 278 268 274 84 112 95 65 39 355 345 49 347 47 103 79 89 117 118 107 108 129 126 139 152 146 139 135 135 141 144 145 145 146 144 136 142 145 147 155 190 172 160 158 164 171 191 229 251
289 295 284 280 283 87 91 98 116 19 58 27 357 19 78 96 105 121 137 143 145 109 114 139 153 154 154 152 131 138 142 143 149 154 144 143 152 160 172 181 204 204 171 172 185 194 212 225 249
269 259 256 279 275 107 99 178 122 79 285 107 68 47 85 107 137 145 158 163 144 146 132 151 157 164 165 156 148 139 147 153 153 154 157 150 190 177 180 202 195 198 192 191 199 204 217 236 256
225 239 313 8 22 80 111 22 31 294 206 217 191 122 138 154 222 223 183 178 156 160 158 161 162 165 172 170 145 167 163 172 179 177 165 200 220 184 216 199 179 198 200 206 213 217 224 233 249
250 243 29 67 21 12 17 307 272 282 276 309 36 5 331 304 251 211 257 240 172 163 164 163 162 165 179 163 153 172 171 179 183 188 174 193 206 188 72 134 204 229 223 214 205 206 220 227 235
273 264 303 309 93 316 295 313 287 302 291 333 57 7 291 263 292 229 210 251 200 158 160 155 160 157 205 158 161 182 174 185 182 184 168 159 151 179 225 11 350 340 309 261 230 205 195 240 259
238 268 230 284 241 256 270 265 268 263 265 177 227 291 260 323 305 302 255 213 227 158 152 149 149 156 194 267 166 179 171 131 121 121 133 159 107 61 62 58 68 46 33 349 299 232 223 191 72
4 313 294 272 244 239 244 257 241 249 220 182 216 228 258 272 328 311 306 213 138 141 140 145 150 145 160 246 118 73 85 79 79 82 87 86 92 97 115 129 158 108 84 16 319 349 1 71 75
279 275 268 242 234 228 238 262 243 225 175 221 230 193 201 291 280 42 1 349 143 116 143 141 136 134 143 189 89 59 68 85 80 88 93 112 125 151 157 127 141 165 149 204 257 303 313 93 84
244 235 260 256 200 155 168 284 304 174 174 220 250 224 198 236 274 66 12 328 329 183 140 134 133 134 103 82 65 72 82 96 106 101 90 85 97 86 6 76 126 180 210 155 258 306 22 78 75
219 251 230 236 173 157 188 271 339 163 190 219 239 275 251 67 273 77 354 299 304 302 115 124 131 128 98 89 82 91 101 105 97 99 88 108 98 85 136 92 58 45 13 37 38 340 69 100 96
233 218 240 249 173 192 228 263 258 268 258 239 213 268 262 195 139 77 24 345 8 107 112 120 107 103 107 99 103 95 93 78 93 108 133 140 133 116 110 95 130 146 110 158 29 29 26 104 106
265 290 293 299 310 292 221 239 267 268 262 233 194 221 220 179 113 90 43 360 71 86 110 99 111 125 122 118 116 102 104 128 126 128 131 134 91 97 91 102 77 356 308 113 96 152 91 97 117
243 260 261 276 282 273 282 277 274 268 266 213 222 180 234 194 120 101 92 63 72 74 72 99 114 123 117 125 126 119 134 165 143 106 64 85 132 159 67 65 46 30 22 8 4 329 78 107 187
245 246 258 272 290 268 256 268 260 256 252 148 163 224 186 188 119 125 131 119 113 107 108 112 124 127 127 127 124 128 144 112 103 102 129 172 188 72 79 90 85 70 51 18 3 356 15 299 205
236 236 245 256 273 262 263 273 294 268 173 160 184 201 170 112 111 137 141 134 123 112 112 112 122 128 139 145 145 161 157 162 131 170 190 165 132 145 132 124 135 160 180 257 281 287 275 268 262
234 299 306 279 263 277 256 270 251 248 184 182 183 185 145 148 145 147 144 137 130 135 133 136 144 148 161 178 176 181 170 119 157 184 147 137 152 175 175 165 184 191 207 202 266 163 221 270 289
246 242 262 262 264 249 245 249 260 242 193 179 174 165 152 146 144 146 137 135 140 140 143 150 152 167 188 197 176 196 146 172 163 146 158 163 165 178 181 190 191 192 189 165 194 242 300 312 321
212 183 218 223 219 252 240 238 231 244 277 177 161 155 158 157 153 157 153 150 145 149 146 161 167 177 188 185 178 191 172 134 142 154 178 167 161 170 176 183 198 188 190 158 203 169 228 205 232
204 196 193 226 235 259 241 229 238 320 165 144 148 154 158 162 166 170 159 149 156 158 164 176 177 175 181 168 168 151 159 173 169 174 197 172 177 183 158 179 183 190 165 175 181 227 208 197 180
189 216 229 273 285 280 240 278 106 151 125 138 155 156 167 172 179 175 152 156 162 168 179 187 177 160 158 161 158 164 185 194 188 162 104 150 102 121 153 169 179 181 176 187 185 219 208 175 212
235 200 211 234 233 243 232 235 248 178 163 162 166 172 176 176 183 168 169 165 167 177 174 186 177 163 162 168 177 178 166 185 199 138 162 219 160 184 150 174 186 187 187 185 197 223 220 174 244
206 232 224 211 229 230 254 258 238 233 172 181 178 178 177 180 185 176 180 172 175 166 168 181 190 167 157 157 168 182 175 178 172 169 188 200 175 162 177 184 190 192 209 191 193 210 255 179 215
210 216 221 209 210 230 252 178 102 89 164 184 186 183 183 188 188 182 190 180 180 173 167 176 181 202 175 163 166 181 161 192 166 194 194 162 171 170 190 204 199 213 220 208 194 207 221 205 207